2024-149DC (60566 NORAD) Tracking and Keplerian Element Data

This shows tracking and keplerian element data for the satellite.

Feedback or suggestion? Click here.




ElementValue
Catalog60566
Name2024-149DC
Epoch Orbit850
Epoch Day286.77192216
Epoch Year2024
RAAN1.4439
Inclination97.7452
Eccentricity0.0001407
Argument of Perigee279.3963
Mean Anonmoly80.7099
Mean Motion14.96194524
Decay Rate0.00041036
L11 60566U 24149DC 24286.77192216 .00041036 00000+0 36262-2 0 9994
L22 60566 97.7452 1.4439 0001407 279.3963 80.7099 14.96194524 8502



Live tracking and technical data element details for 2024-149DC (NORAD 60566). 2024-149DC can be tracked NOW for your location showing map with azimuth and elevation plus other details from your city location.







IsCatalogInMostPopularTable: catalog: 60566, numindb: 4
Update: records affected: 1



GetName: 60566 2024-149DC

Hit Count: updated at: Tue, 03 Dec 2024 02:42:39 GMT